2/15/2023,0:00,26.436,26.958,1579
2/15/2023,1:00,26.436,26.958,1606
2/15/2023,2:00,26.436,26.958,1605
2/15/2023,3:00,26.436,26.958,1602
2/15/2023,4:00,26.436,26.958,1600
2/15/2023,5:00,26.35,26.899,1597
2/15/2023,6:00,26.35,26.958,1597
2/15/2023,7:00,26.35,26.958,1596
2/15/2023,8:00,26.35,26.958,1598
2/15/2023,9:00,26.35,26.958,1597
2/15/2023,10:00,0.039,26.958,1556
2/15/2023,11:00,0,0.039,0
2/15/2023,12:00,0,0,0
2/15/2023,13:00,0,0,0
2/15/2023,14:00,0,0,0
2/15/2023,15:00,0,0,0
2/15/2023,16:00,0,0,0
2/15/2023,17:00,0,0,0
2/15/2023,18:00,0,0,0
2/15/2023,19:00,0,0,0
2/15/2023,20:00,0,0,0
2/15/2023,21:00,0,0,0
2/15/2023,22:00,0,34.136,43
2/15/2023,23:00,26.35,27.167,1603
2/16/2023,0:00,26.436,26.958,1573
2/16/2023,1:00,26.35,26.958,1602
2/16/2023,2:00,26.436,26.958,1600
2/16/2023,3:00,26.21,26.899,1596
2/16/2023,4:00,26.35,26.899,1595
2/16/2023,5:00,26.21,26.899,1593
2/16/2023,6:00,26.21,26.899,1594
2/16/2023,7:00,26.21,26.899,1592
2/16/2023,8:00,26.21,26.899,1593
2/16/2023,9:00,26.21,26.752,1592
2/16/2023,10:00,0.039,26.899,1551
2/16/2023,11:00,0,0.038,0
2/16/2023,12:00,0,0,0
2/16/2023,13:00,0,0,0
2/16/2023,14:00,0,0,0
2/16/2023,15:00,0,0,0
2/16/2023,16:00,0,0,0
2/16/2023,17:00,0,0,0
2/16/2023,18:00,0,0,0
2/16/2023,19:00,0,0,0
2/16/2023,20:00,0,0,0
2/16/2023,21:00,0,0,0
2/16/2023,22:00,0,52.57,45
2/16/2023,23:00,26.35,26.958,1600
2/17/2023,0:00,26.35,26.958,1574
2/17/2023,1:00,26.35,26.958,1599
2/17/2023,2:00,26.436,26.958,1600
2/17/2023,3:00,26.35,26.958,1598
2/17/2023,4:00,26.35,26.899,1597
2/17/2023,5:00,26.35,26.899,1595
2/17/2023,6:00,26.35,26.899,1595
2/17/2023,7:00,26.35,26.899,1594
2/17/2023,8:00,26.21,26.752,1593
2/17/2023,9:00,26.21,26.752,1593
2/17/2023,10:00,0.036,26.899,1551
2/17/2023,11:00,0,0.035,0
2/17/2023,12:00,0,0,0
2/17/2023,13:00,0,0,0
2/17/2023,14:00,0,0,0
2/17/2023,15:00,0,0,0
2/17/2023,16:00,0,0,0
2/17/2023,17:00,0,0,0
2/17/2023,18:00,0,0,0
2/17/2023,19:00,0,0,0
2/17/2023,20:00,0,0,0
2/17/2023,21:00,0,0,0
2/17/2023,22:00,0,34.136,46
2/17/2023,23:00,26.436,26.958,1603
2/18/2023,0:00,26.436,26.958,1576
2/18/2023,1:00,0.037,26.958,1558
2/18/2023,2:00,0,0.037,0
2/18/2023,3:00,0,0,0
2/18/2023,4:00,0,0,0
2/18/2023,5:00,0,0,0
2/18/2023,6:00,0,31.573,47
2/18/2023,7:00,26.436,27.167,1604
2/18/2023,8:00,26.436,26.958,1601
2/18/2023,9:00,26.35,26.958,1599
2/18/2023,10:00,0.035,26.958,1551
2/18/2023,11:00,0,0.035,0
2/18/2023,12:00,0,0,0
2/18/2023,13:00,0,0,0
2/18/2023,14:00,0,0,0
2/18/2023,15:00,0,0,0
2/18/2023,16:00,0,0,0
2/18/2023,17:00,0,0,0
2/18/2023,18:00,0,0,0
2/18/2023,19:00,0,0,0
2/18/2023,20:00,0,0,0
2/18/2023,21:00,0,0,0
2/18/2023,22:00,0,31.045,45
2/18/2023,23:00,26.436,27.167,1606
2/19/2023,0:00,26.436,26.958,1579
2/19/2023,1:00,0.037,27.138,1563
2/19/2023,2:00,0,0.036,0
2/19/2023,3:00,0,0,0
2/19/2023,4:00,0,0,0
2/19/2023,5:00,0,0,0
2/19/2023,6:00,0,0,0
2/19/2023,7:00,0,38.94,46
2/19/2023,8:00,26.436,27.167,1606
2/19/2023,9:00,26.436,26.958,1601
2/19/2023,10:00,26.436,26.958,1603
2/19/2023,11:00,26.35,26.958,1601
2/19/2023,12:00,26.436,26.958,1601
2/19/2023,13:00,26.35,26.958,1601
2/19/2023,14:00,26.436,26.958,1603
2/19/2023,15:00,26.436,26.958,1605
2/19/2023,16:00,26.436,26.958,1603
2/19/2023,17:00,0.11,26.958,1584
2/19/2023,18:00,0,0.106,0
2/19/2023,19:00,0,0,0
2/19/2023,20:00,0,0,0
2/19/2023,21:00,0,0,0
2/19/2023,22:00,0,34.136,46
2/19/2023,23:00,26.35,27.167,1603
2/20/2023,0:00,26.436,26.958,1574
2/20/2023,1:00,26.35,26.958,1600
2/20/2023,2:00,26.436,26.958,1602
2/20/2023,3:00,26.35,26.958,1598
2/20/2023,4:00,26.35,26.958,1599
2/20/2023,5:00,26.35,26.958,1600
2/20/2023,6:00,26.35,26.958,1599
2/20/2023,7:00,26.35,26.958,1598
2/20/2023,8:00,26.21,26.899,1594
2/20/2023,9:00,26.21,26.899,1594
2/20/2023,10:00,0.035,26.899,1546
2/20/2023,11:00,0,0.035,0
2/20/2023,12:00,0,0,0
2/20/2023,13:00,0,0,0
2/20/2023,14:00,0,0,0
2/20/2023,15:00,0,0,0
2/20/2023,16:00,0,0,0
2/20/2023,17:00,0,0,0
2/20/2023,18:00,0,0,0
2/20/2023,19:00,0,0,0
2/20/2023,20:00,0,0,0
2/20/2023,21:00,0,0,0
2/20/2023,22:00,0,35.329,49
2/20/2023,23:00,26.55,27.167,1607
2/21/2023,0:00,26.436,26.958,1578
2/21/2023,1:00,26.436,26.958,1606
2/21/2023,2:00,26.55,26.958,1606
2/21/2023,3:00,26.436,26.958,1603
2/21/2023,4:00,26.436,26.958,1604
2/21/2023,5:00,26.35,26.958,1601
2/21/2023,6:00,26.35,26.958,1599
2/21/2023,7:00,26.436,26.958,1600
2/21/2023,8:00,26.35,26.958,1599
2/21/2023,9:00,26.35,26.958,1600
2/21/2023,10:00,0.033,26.958,1550
2/21/2023,11:00,0,0.033,0
2/21/2023,12:00,0,0,0
2/21/2023,13:00,0,0,0
2/21/2023,14:00,0,0,0
2/21/2023,15:00,0,0,0
2/21/2023,16:00,0,0,0
2/21/2023,17:00,0,0,0
2/21/2023,18:00,0,0,0
2/21/2023,19:00,0,0,0
2/21/2023,20:00,0,0,0
2/21/2023,21:00,0,0,0
2/21/2023,22:00,0,50.548,50
2/21/2023,23:00,24.73,26.958,1601
2/22/2023,0:00,26.436,26.958,1575
2/22/2023,1:00,26.436,26.958,1602
2/22/2023,2:00,26.35,26.958,1603
2/22/2023,3:00,26.35,26.958,1600
2/22/2023,4:00,26.436,26.958,1601
2/22/2023,5:00,26.35,26.899,1596
2/22/2023,6:00,26.35,26.899,1594
2/22/2023,7:00,26.21,26.899,1593
2/22/2023,8:00,26.21,26.899,1594
2/22/2023,9:00,26.21,26.752,1592
2/22/2023,10:00,0.031,26.899,1544
2/22/2023,11:00,0,0.03,0
2/22/2023,12:00,0,0,0
2/22/2023,13:00,0,0,0
2/22/2023,14:00,0,0,0
2/22/2023,15:00,0,0,0
2/22/2023,16:00,0,0,0
2/22/2023,17:00,0,0,0
2/22/2023,18:00,0,0,0
2/22/2023,19:00,0,0,0
2/22/2023,20:00,0,0,0
2/22/2023,21:00,0,0,0
2/22/2023,22:00,0,32.622,51
2/22/2023,23:00,26.436,26.958,1604
2/23/2023,0:00,26.35,26.958,1575
2/23/2023,1:00,26.436,26.958,1602
2/23/2023,2:00,26.436,26.958,1602
2/23/2023,3:00,26.35,26.958,1600
2/23/2023,4:00,26.35,26.958,1598
2/23/2023,5:00,26.35,26.899,1594
2/23/2023,6:00,26.35,26.899,1595
2/23/2023,7:00,26.21,26.752,1591
2/23/2023,8:00,26.35,26.899,1593
2/23/2023,9:00,26.21,26.958,1594
2/23/2023,10:00,0.03,26.752,1542
2/23/2023,11:00,0,0.03,0
2/23/2023,12:00,0,0,0
2/23/2023,13:00,0,0,0
2/23/2023,14:00,0,0,0
2/23/2023,15:00,0,0,0
2/23/2023,16:00,0,0,0
2/23/2023,17:00,0,0,0
2/23/2023,18:00,0,0,0
2/23/2023,19:00,0,0,0
2/23/2023,20:00,0,0,0
2/23/2023,21:00,0,0,0
2/23/2023,22:00,0,38.94,53
2/23/2023,23:00,26.35,26.958,1600
2/24/2023,0:00,26.35,26.958,1575
2/24/2023,1:00,26.35,26.958,1600
2/24/2023,2:00,26.35,26.958,1599
2/24/2023,3:00,26.35,26.899,1597
2/24/2023,4:00,26.35,26.899,1595
2/24/2023,5:00,26.21,26.899,1593
2/24/2023,6:00,26.21,26.899,1593
2/24/2023,7:00,26.21,26.899,1593
2/24/2023,8:00,26.21,26.899,1593
2/24/2023,9:00,26.21,26.899,1593
2/24/2023,10:00,0.031,26.752,1540
2/24/2023,11:00,0,0.03,0
2/24/2023,12:00,0,0,0
2/24/2023,13:00,0,0,0
2/24/2023,14:00,0,0,0
2/24/2023,15:00,0,0,0
2/24/2023,16:00,0,0,0
2/24/2023,17:00,0,0,0
2/24/2023,18:00,0,0,0
2/24/2023,19:00,0,0,0
2/24/2023,20:00,0,0,0
2/24/2023,21:00,0,0,0
2/24/2023,22:00,0,27.814,55
2/24/2023,23:00,26.35,26.958,1597
2/25/2023,0:00,26.21,26.958,1569
2/25/2023,1:00,0.028,26.958,1547
2/25/2023,2:00,0,0.028,0
2/25/2023,3:00,0,0,0
2/25/2023,4:00,0,0,0
2/25/2023,5:00,0,0,0
2/25/2023,6:00,0,27.595,55
2/25/2023,7:00,26.35,26.958,1599
2/25/2023,8:00,26.35,26.958,1598
2/25/2023,9:00,26.35,26.899,1594
2/25/2023,10:00,0.031,26.958,1541
2/25/2023,11:00,0,0.031,0
2/25/2023,12:00,0,0,0
2/25/2023,13:00,0,0,0
2/25/2023,14:00,0,0,0
2/25/2023,15:00,0,0,0
2/25/2023,16:00,0,0,0
2/25/2023,17:00,0,0,0
2/25/2023,18:00,0,0,0
2/25/2023,19:00,0,0,0
2/25/2023,20:00,0,0,0
2/25/2023,21:00,0,0,0
2/25/2023,22:00,0,34.136,56
2/25/2023,23:00,26.436,26.958,1602
2/26/2023,0:00,26.436,26.958,1576
2/26/2023,1:00,0.028,26.958,1549
2/26/2023,2:00,0,0.026,0
2/26/2023,3:00,0,0,0
2/26/2023,4:00,0,0,0
2/26/2023,5:00,0,0,0
2/26/2023,6:00,0,0,0
2/26/2023,7:00,0,58.41,57
2/26/2023,8:00,26.436,26.958,1603
2/26/2023,9:00,26.35,26.958,1599
2/26/2023,10:00,0.029,26.958,1545
2/26/2023,11:00,0,0.029,0
2/26/2023,12:00,0,0,0
2/26/2023,13:00,0,0,0
2/26/2023,14:00,0,0,0
2/26/2023,15:00,0,0,0
2/26/2023,16:00,0,0,0
2/26/2023,17:00,0,0,0
2/26/2023,18:00,0,0,0
2/26/2023,19:00,0,0,0
2/26/2023,20:00,0,0,0
2/26/2023,21:00,0,0,0
2/26/2023,22:00,0,36.507,59
2/26/2023,23:00,26.436,27.167,1607
2/27/2023,0:00,26.55,26.958,1580
2/27/2023,1:00,26.55,26.958,1608
2/27/2023,2:00,26.436,26.958,1606
2/27/2023,3:00,26.436,26.958,1603
2/27/2023,4:00,26.436,26.958,1602
2/27/2023,5:00,26.436,26.958,1603
2/27/2023,6:00,26.436,26.958,1601
2/27/2023,7:00,26.35,26.958,1599
2/27/2023,8:00,26.35,26.958,1598
2/27/2023,9:00,26.436,26.958,1601
2/27/2023,10:00,0.026,26.958,1542
2/27/2023,11:00,0,0.025,0
2/27/2023,12:00,0,0,0
2/27/2023,13:00,0,0,0
2/27/2023,14:00,0,0,0
2/27/2023,15:00,0,0,0
2/27/2023,16:00,0,0,0
2/27/2023,17:00,0,0,0
2/27/2023,18:00,0,0,0
2/27/2023,19:00,0,0,0
2/27/2023,20:00,0,0,0
2/27/2023,21:00,0,0,0
2/27/2023,22:00,0,27.379,60
2/27/2023,23:00,26.436,26.958,1604
2/28/2023,0:00,26.436,26.958,1575
2/28/2023,1:00,26.436,26.958,1602
2/28/2023,2:00,26.436,26.958,1603
2/28/2023,3:00,26.436,26.958,1602
2/28/2023,4:00,26.436,26.958,1602
2/28/2023,5:00,26.436,26.958,1601
2/28/2023,6:00,26.35,26.958,1598
2/28/2023,7:00,26.35,26.899,1595
2/28/2023,8:00,26.21,26.899,1593
2/28/2023,9:00,26.35,26.958,1594
2/28/2023,10:00,0.025,26.752,1535
2/28/2023,11:00,0,0.025,0
2/28/2023,12:00,0,0,0
2/28/2023,13:00,0,0,0
2/28/2023,14:00,0,0,0
2/28/2023,15:00,0,0,0
2/28/2023,16:00,0,0,0
2/28/2023,17:00,0,0,0
2/28/2023,18:00,0,0,0
2/28/2023,19:00,0,0,0
2/28/2023,20:00,0,0,0
2/28/2023,21:00,0,0,0
2/28/2023,22:00,0,35.329,61
2/28/2023,23:00,26.436,26.958,1605
3/1/2023,0:00,26.436,26.958,1576
3/1/2023,1:00,26.35,26.958,1600
3/1/2023,2:00,26.35,26.958,1599
3/1/2023,3:00,26.35,26.958,1598
3/1/2023,4:00,26.35,26.899,1597
3/1/2023,5:00,26.35,26.899,1596
3/1/2023,6:00,26.35,26.899,1595
3/1/2023,7:00,26.21,26.752,1594
3/1/2023,8:00,26.21,26.899,1593
3/1/2023,9:00,26.35,26.899,1595
3/1/2023,10:00,0.025,26.958,1535
3/1/2023,11:00,0,0.025,0
3/1/2023,12:00,0,0,0
3/1/2023,13:00,0,0,0
3/1/2023,14:00,0,0,0
3/1/2023,15:00,0,0,0
3/1/2023,16:00,0,0,0
3/1/2023,17:00,0,0,0
3/1/2023,18:00,0,0,0
3/1/2023,19:00,0,0,0
3/1/2023,20:00,0,0,0
3/1/2023,21:00,0,0,0
3/1/2023,22:00,0,52.57,63
3/1/2023,23:00,26.436,26.958,1603
3/2/2023,0:00,26.436,26.958,1576
3/2/2023,1:00,26.436,26.958,1605
3/2/2023,2:00,26.436,26.958,1601
3/2/2023,3:00,26.436,26.958,1602
3/2/2023,4:00,26.35,26.958,1599
3/2/2023,5:00,26.35,26.958,1598
3/2/2023,6:00,26.35,26.958,1599
3/2/2023,7:00,26.21,26.899,1594
3/2/2023,8:00,26.35,26.899,1594
3/2/2023,9:00,26.35,26.899,1596
3/2/2023,10:00,0.026,26.899,1533
3/2/2023,11:00,0,0.026,0
3/2/2023,12:00,0,0,0
3/2/2023,13:00,0,0,0
3/2/2023,14:00,0,0,0
3/2/2023,15:00,0,0,0
3/2/2023,16:00,0,0,0
3/2/2023,17:00,0,0,0
3/2/2023,18:00,0,0,0
3/2/2023,19:00,0,0,0
3/2/2023,20:00,0,0,0
3/2/2023,21:00,0,0,0
3/2/2023,22:00,0,32.622,65
3/2/2023,23:00,26.436,27.167,1605
3/3/2023,0:00,26.436,26.958,1577
3/3/2023,1:00,26.35,26.958,1602
3/3/2023,2:00,26.436,26.958,1604
3/3/2023,3:00,26.35,26.958,1601
3/3/2023,4:00,26.35,26.958,1603
3/3/2023,5:00,26.35,26.958,1598
3/3/2023,6:00,26.35,26.958,1599
3/3/2023,7:00,26.35,26.899,1595
3/3/2023,8:00,26.35,26.958,1595
3/3/2023,9:00,26.35,26.899,1597
3/3/2023,10:00,0.024,26.899,1529
3/3/2023,11:00,0,0.024,0
3/3/2023,12:00,0,0,0
3/3/2023,13:00,0,0,0
3/3/2023,14:00,0,0,0
3/3/2023,15:00,0,0,0
3/3/2023,16:00,0,0,0
3/3/2023,17:00,0,0,0
3/3/2023,18:00,0,0,0
3/3/2023,19:00,0,0,0
3/3/2023,20:00,0,0,0
3/3/2023,21:00,0,0,0
3/3/2023,22:00,0,33.698,66
3/3/2023,23:00,26.35,26.958,1599
3/4/2023,0:00,26.35,26.958,1573
3/4/2023,1:00,0.023,26.958,1531
3/4/2023,2:00,0,0.023,0
3/4/2023,3:00,0,0,0
3/4/2023,4:00,0,0,0
3/4/2023,5:00,0,0,0
3/4/2023,6:00,0,32.974,67
3/4/2023,7:00,26.35,26.958,1597
3/4/2023,8:00,26.35,26.899,1596
3/4/2023,9:00,26.21,26.958,1594
3/4/2023,10:00,0.024,26.752,1526
3/4/2023,11:00,0,0.024,0
3/4/2023,12:00,0,0,0
3/4/2023,13:00,0,0,0
3/4/2023,14:00,0,0,0
3/4/2023,15:00,0,0,0
3/4/2023,16:00,0,0,0
3/4/2023,17:00,0,0,0
3/4/2023,18:00,0,0,0
3/4/2023,19:00,0,0,0
3/4/2023,20:00,0,0,0
3/4/2023,21:00,0,0,0
3/4/2023,22:00,0,52.57,68
3/4/2023,23:00,26.35,26.958,1603
3/5/2023,0:00,26.436,26.958,1576
3/5/2023,1:00,0.023,26.958,1536
3/5/2023,2:00,0,0.023,0
3/5/2023,3:00,0,0,0
3/5/2023,4:00,0,0,0
3/5/2023,5:00,0,0,0
3/5/2023,6:00,0,0,0
3/5/2023,7:00,0,35.908,69
3/5/2023,8:00,26.436,27.138,1601
3/5/2023,9:00,26.436,26.958,1602
3/5/2023,10:00,0.023,26.958,1534
3/5/2023,11:00,0,0.023,0
3/5/2023,12:00,0,0,0
3/5/2023,13:00,0,0,0
3/5/2023,14:00,0,0,0
3/5/2023,15:00,0,0,0
3/5/2023,16:00,0,0,0
3/5/2023,17:00,0,0,0
3/5/2023,18:00,0,0,0
3/5/2023,19:00,0,0,0
3/5/2023,20:00,0,0,0
3/5/2023,21:00,0,0,0
3/5/2023,22:00,0,31.86,69
3/5/2023,23:00,26.55,27.167,1610
3/6/2023,0:00,26.436,26.958,1579
3/6/2023,1:00,26.436,26.958,1604
3/6/2023,2:00,26.436,26.958,1605
3/6/2023,3:00,26.436,26.958,1603
3/6/2023,4:00,26.436,26.958,1602
3/6/2023,5:00,26.436,26.958,1602
3/6/2023,6:00,26.436,26.958,1603
3/6/2023,7:00,26.35,26.958,1602
3/6/2023,8:00,26.35,26.958,1597
3/6/2023,9:00,26.436,26.958,1599
3/6/2023,10:00,0.023,26.958,1528
3/6/2023,11:00,0,0.023,0
3/6/2023,12:00,0,0,0
3/6/2023,13:00,0,0,0
3/6/2023,14:00,0,0,0
3/6/2023,15:00,0,0,0
3/6/2023,16:00,0,0,0
3/6/2023,17:00,0,0,0
3/6/2023,18:00,0,0,0
3/6/2023,19:00,0,0,0
3/6/2023,20:00,0,0,0
3/6/2023,21:00,0,0,0
3/6/2023,22:00,0,34.585,71
3/6/2023,23:00,26.436,27.138,1606
3/7/2023,0:00,26.436,27.138,1579
3/7/2023,1:00,26.436,26.958,1603
3/7/2023,2:00,26.436,26.958,1604
3/7/2023,3:00,26.436,26.958,1602
3/7/2023,4:00,26.436,26.958,1602
3/7/2023,5:00,26.35,26.958,1599
3/7/2023,6:00,26.35,26.899,1596
3/7/2023,7:00,26.35,26.958,1598
3/7/2023,8:00,26.35,26.958,1596
3/7/2023,9:00,26.35,26.958,1599
3/7/2023,10:00,0.022,26.958,1529
3/7/2023,11:00,0,0.022,0
3/7/2023,12:00,0,0,0
3/7/2023,13:00,0,0,0
3/7/2023,14:00,0,0,0
3/7/2023,15:00,0,0,0
3/7/2023,16:00,0,0,0
3/7/2023,17:00,0,0,0
3/7/2023,18:00,0,0,0
3/7/2023,19:00,0,0,0
3/7/2023,20:00,0,0,0
3/7/2023,21:00,0,0,0
3/7/2023,22:00,0,52.57,73
3/7/2023,23:00,26.35,27.138,1604
3/8/2023,0:00,26.55,26.958,1579
3/8/2023,1:00,26.436,26.958,1604
3/8/2023,2:00,26.436,26.958,1604
3/8/2023,3:00,26.436,26.958,1602
3/8/2023,4:00,26.436,26.958,1603
3/8/2023,5:00,26.436,26.958,1601
3/8/2023,6:00,26.35,26.958,1599
3/8/2023,7:00,26.21,26.958,1597
3/8/2023,8:00,26.35,26.958,1597
3/8/2023,9:00,26.35,26.958,1597
3/8/2023,10:00,0.021,26.958,1528
3/8/2023,11:00,0,0.021,0
3/8/2023,12:00,0,0,0
3/8/2023,13:00,0,0,0
3/8/2023,14:00,0,0,0
3/8/2023,15:00,0,0,0
3/8/2023,16:00,0,0,0
3/8/2023,17:00,0,0,0
3/8/2023,18:00,0,0,0
3/8/2023,19:00,0,0,0
3/8/2023,20:00,0,0,0
3/8/2023,21:00,0,0,0
3/8/2023,22:00,0,31.86,75
3/8/2023,23:00,26.436,26.958,1605
3/9/2023,0:00,26.436,26.958,1578
3/9/2023,1:00,26.436,26.958,1605
3/9/2023,2:00,26.436,26.958,1606
3/9/2023,3:00,26.436,26.958,1602
3/9/2023,4:00,26.35,26.958,1598
3/9/2023,5:00,26.35,26.958,1598
3/9/2023,6:00,26.35,26.958,1599
3/9/2023,7:00,26.35,26.958,1598
3/9/2023,8:00,26.35,26.958,1598
3/9/2023,9:00,26.35,26.899,1596
3/9/2023,10:00,0.023,26.958,1523
3/9/2023,11:00,0,0.023,0
3/9/2023,12:00,0,0,0
3/9/2023,13:00,0,0,0
3/9/2023,14:00,0,0,0
3/9/2023,15:00,0,0,0
3/9/2023,16:00,0,0,0
3/9/2023,17:00,0,0,0
3/9/2023,18:00,0,0,0
3/9/2023,19:00,0,0,0
3/9/2023,20:00,0,0,0
3/9/2023,21:00,0,0,0
3/9/2023,22:00,0,34.136,76
3/9/2023,23:00,26.55,27.167,1608
3/10/2023,0:00,26.436,26.958,1581
3/10/2023,1:00,26.55,27.138,1608
3/10/2023,2:00,26.55,26.958,1606
3/10/2023,3:00,26.436,26.958,1606
3/10/2023,4:00,26.436,27.138,1606
3/10/2023,5:00,26.436,26.958,1602
3/10/2023,6:00,26.436,26.958,1602
3/10/2023,7:00,26.436,26.958,1602
3/10/2023,8:00,26.436,26.958,1600
3/10/2023,9:00,26.35,26.958,1600
3/10/2023,10:00,0.019,26.958,1525
3/10/2023,11:00,0,0.019,0
3/10/2023,12:00,0,0,0
3/10/2023,13:00,0,0,0
3/10/2023,14:00,0,0,0
3/10/2023,15:00,0,0,0
3/10/2023,16:00,0,0,0
3/10/2023,17:00,0,0,0
3/10/2023,18:00,0,0,0
3/10/2023,19:00,0,0,0
3/10/2023,20:00,0,0,0
3/10/2023,21:00,0,0,0
3/10/2023,22:00,0,38.94,78
3/10/2023,23:00,26.436,26.958,1604
3/11/2023,0:00,26.436,26.958,1577
3/11/2023,1:00,0.019,26.958,1526
3/11/2023,2:00,0,0.019,0
3/11/2023,3:00,0,0,0
3/11/2023,4:00,0,0,0
3/11/2023,5:00,0,0,0
3/11/2023,6:00,0,33.332,78
3/11/2023,7:00,26.436,26.958,1603
3/11/2023,8:00,26.436,26.958,1600
3/11/2023,9:00,26.35,26.958,1600
3/11/2023,10:00,0.019,26.958,1521
3/11/2023,11:00,0,0.019,0
3/11/2023,12:00,0,0,0
3/11/2023,13:00,0,0,0
3/11/2023,14:00,0,0,0
3/11/2023,15:00,0,0,0
3/11/2023,16:00,0,0,0
3/11/2023,17:00,0,0,0
3/11/2023,18:00,0,0,0
3/11/2023,19:00,0,0,0
3/11/2023,20:00,0,0,0
3/11/2023,21:00,0,0,0
3/11/2023,22:00,0,27.595,80
3/11/2023,23:00,26.436,27.138,1606
3/12/2023,0:00,26.436,26.958,1579
3/12/2023,1:00,0.022,26.958,1528
3/12/2023,2:00,0,0.022,0
3/12/2023,3:00,0,0,0
3/12/2023,4:00,0,0,0
3/12/2023,5:00,0,0,0
3/12/2023,6:00,0,52.57,80
3/12/2023,7:00,26.436,27.138,1606
3/12/2023,8:00,26.436,26.958,1604
3/12/2023,9:00,0.018,27.138,1524
3/12/2023,10:00,0,0.018,0
3/12/2023,11:00,0,0,0
3/12/2023,12:00,0,0,0
3/12/2023,13:00,0,0,0
3/12/2023,14:00,0,0,0
3/12/2023,15:00,0,0,0
3/12/2023,16:00,0,0,0
3/12/2023,17:00,0,0,0
3/12/2023,18:00,0,0,0
3/12/2023,19:00,0,0,0
3/12/2023,20:00,0,0,0
3/12/2023,21:00,0,35.329,81
3/12/2023,22:00,26.55,27.167,1609
3/12/2023,23:00,26.55,27.167,1611
3/13/2023,0:00,26.55,27.138,1582
3/13/2023,1:00,26.55,27.167,1610
3/13/2023,2:00,26.55,27.138,1610
3/13/2023,3:00,26.55,26.958,1607
3/13/2023,4:00,26.55,26.958,1605
3/13/2023,5:00,26.436,26.958,1606
3/13/2023,6:00,26.35,26.958,1601
3/13/2023,7:00,26.21,26.899,1594
3/13/2023,8:00,26.35,26.958,1599
3/13/2023,9:00,0.019,26.958,1520
3/13/2023,10:00,0,0.019,0
3/13/2023,11:00,0,0,0
3/13/2023,12:00,0,0,0
3/13/2023,13:00,0,0,0
3/13/2023,14:00,0,0,0
3/13/2023,15:00,0,0,0
3/13/2023,16:00,0,0,0
3/13/2023,17:00,0,0,0
3/13/2023,18:00,0,0,0
3/13/2023,19:00,0,0,0
3/13/2023,20:00,0,0,0
3/13/2023,21:00,0,52.57,83
3/13/2023,22:00,26.55,27.167,1609
3/13/2023,23:00,26.55,26.958,1607
3/14/2023,0:00,26.55,27.138,1583
3/14/2023,1:00,26.55,27.138,1608
3/14/2023,2:00,26.436,26.958,1606
3/14/2023,3:00,26.436,26.958,1604
3/14/2023,4:00,26.436,26.958,1602
3/14/2023,5:00,26.35,26.958,1600
3/14/2023,6:00,26.35,26.958,1598
3/14/2023,7:00,26.35,26.958,1600
3/14/2023,8:00,26.35,26.958,1599
3/14/2023,9:00,0.019,26.958,1515
3/14/2023,10:00,0,0.019,0
3/14/2023,11:00,0,0,0
3/14/2023,12:00,0,0,0
3/14/2023,13:00,0,0,0
3/14/2023,14:00,0,0,0
3/14/2023,15:00,0,0,0
3/14/2023,16:00,0,0,0
3/14/2023,17:00,0,0,0
3/14/2023,18:00,0,0,0
3/14/2023,19:00,0,0,0
3/14/2023,20:00,0,0,0
3/14/2023,21:00,0,31.86,85
3/14/2023,22:00,26.55,27.167,1610
3/14/2023,23:00,26.436,27.167,1610
3/15/2023,0:00,26.55,27.138,1582
3/15/2023,1:00,26.55,27.138,1608
3/15/2023,2:00,26.436,27.138,1605
3/15/2023,3:00,26.55,27.138,1605
3/15/2023,4:00,26.436,26.958,1603
3/15/2023,5:00,26.436,26.958,1604
3/15/2023,6:00,26.436,26.958,1601
3/15/2023,7:00,26.436,26.958,1601
3/15/2023,8:00,26.436,26.958,1602
3/15/2023,9:00,0.018,26.958,1517
3/15/2023,10:00,0,0.018,0
3/15/2023,11:00,0,0,0
3/15/2023,12:00,0,0,0
3/15/2023,13:00,0,0,0
3/15/2023,14:00,0,0,0
3/15/2023,15:00,0,0,0
3/15/2023,16:00,0,0,0
3/15/2023,17:00,0,0,0
3/15/2023,18:00,0,0,0
3/15/2023,19:00,0,0,0
3/15/2023,20:00,0,0,0
3/15/2023,21:00,0,32.974,84
3/15/2023,22:00,26.436,27.167,1606
3/15/2023,23:00,26.436,27.138,1607
3/16/2023,0:00,26.436,26.958,1579
3/16/2023,1:00,26.436,26.958,1603
3/16/2023,2:00,26.436,26.958,1602
3/16/2023,3:00,26.436,26.958,1602
3/16/2023,4:00,26.436,26.958,1600
3/16/2023,5:00,26.35,26.958,1600
3/16/2023,6:00,26.35,26.958,1598
3/16/2023,7:00,26.35,26.958,1599
3/16/2023,8:00,26.35,26.958,1600
3/16/2023,9:00,0.018,26.958,1516
3/16/2023,10:00,0,0.018,0
3/16/2023,11:00,0,0,0
3/16/2023,12:00,0,0,0
3/16/2023,13:00,0,0,0
3/16/2023,14:00,0,0,0
3/16/2023,15:00,0,0,0
3/16/2023,16:00,0,0,0
3/16/2023,17:00,0,0,0
3/16/2023,18:00,0,0,0
3/16/2023,19:00,0,0,0
3/16/2023,20:00,0,0,0
3/16/2023,21:00,0,38.94,85
3/16/2023,22:00,26.55,27.138,1608
3/16/2023,23:00,26.55,27.138,1608
3/17/2023,0:00,26.55,26.958,1580
3/17/2023,1:00,26.55,27.167,1609
3/17/2023,2:00,26.436,26.958,1605
3/17/2023,3:00,26.436,26.958,1603
3/17/2023,4:00,26.35,26.958,1600
3/17/2023,5:00,26.436,26.958,1600
3/17/2023,6:00,26.35,26.958,1599
3/17/2023,7:00,26.35,26.958,1597
3/17/2023,8:00,26.21,26.899,1594
3/17/2023,9:00,0.018,26.899,1511
3/17/2023,10:00,0,0.018,0
3/17/2023,11:00,0,0,0
3/17/2023,12:00,0,0,0
3/17/2023,13:00,0,0,0
3/17/2023,14:00,0,0,0
3/17/2023,15:00,0,0,0
3/17/2023,16:00,0,87.617,480
3/17/2023,17:00,0,0.001,0
3/17/2023,18:00,0,0,0
3/17/2023,19:00,0,0,0
3/17/2023,20:00,0,0,0
3/17/2023,21:00,0,31.942,86
3/17/2023,22:00,26.35,26.958,1598
3/17/2023,23:00,26.35,26.958,1598
3/18/2023,0:00,0.017,26.958,1488
3/18/2023,1:00,0,0.017,0
3/18/2023,2:00,0,0,0
3/18/2023,3:00,0,0,0
3/18/2023,4:00,0,0,0
3/18/2023,5:00,0,27.167,76
3/18/2023,6:00,26.21,26.958,1593
3/18/2023,7:00,26.35,26.899,1596
3/18/2023,8:00,26.21,26.899,1593
3/18/2023,9:00,0.019,26.899,1507
3/18/2023,10:00,0,0.018,0
3/18/2023,11:00,0,0,0
3/18/2023,12:00,0,0,0
3/18/2023,13:00,0,0,0
3/18/2023,14:00,0,0,0
3/18/2023,15:00,0,0,0
3/18/2023,16:00,0,0,0
3/18/2023,17:00,0,0,0
3/18/2023,18:00,0,0,0
3/18/2023,19:00,0,0,0
3/18/2023,20:00,0,0,0
3/18/2023,21:00,0,30.212,88
3/18/2023,22:00,0.001,26.958,714
3/18/2023,23:00,0,0.001,0
3/19/2023,0:00,0,0,0
3/19/2023,1:00,0,0,0
3/19/2023,2:00,0,0,0
3/19/2023,3:00,0,0,0
3/19/2023,4:00,0,0,0
3/19/2023,5:00,0,0,0
3/19/2023,6:00,0,73.014,88
3/19/2023,7:00,0.001,27.138,714
3/19/2023,8:00,0,0.001,0
3/19/2023,9:00,0,0,0
3/19/2023,10:00,0,0,0
3/19/2023,11:00,0,0,0
3/19/2023,12:00,0,0,0
3/19/2023,13:00,0,0,0
3/19/2023,14:00,0,0,0
3/19/2023,15:00,0,0,0
3/19/2023,16:00,0,0,0
3/19/2023,17:00,0,0,0
3/19/2023,18:00,0,0,0
3/19/2023,19:00,0,0,0
3/19/2023,20:00,0,0,0
3/19/2023,21:00,0,27.595,90
3/19/2023,22:00,0.001,27.167,717
3/19/2023,23:00,0,0.001,0
3/20/2023,0:00,0,0,0
3/20/2023,1:00,0,0,0
3/20/2023,2:00,0,0,0
3/20/2023,3:00,0,0,0
3/20/2023,4:00,0,0,0
3/20/2023,5:00,0,0,0
3/20/2023,6:00,0,54.76,90
3/20/2023,7:00,0.001,27.167,717
3/20/2023,8:00,0,0.001,0
3/20/2023,9:00,0,0,0
3/20/2023,10:00,0,0,0
3/20/2023,11:00,0,0,0
3/20/2023,12:00,0,0,0
3/20/2023,13:00,0,0,0
3/20/2023,14:00,0,0,0
3/20/2023,15:00,0,0,0
3/20/2023,16:00,0,33.332,658
3/20/2023,17:00,26.55,27.379,1618
3/20/2023,18:00,26.55,27.167,1611
3/20/2023,19:00,26.666,27.167,1614
3/20/2023,20:00,26.55,27.167,1613
3/20/2023,21:00,26.55,27.167,1610
3/20/2023,22:00,26.55,27.167,1609
3/20/2023,23:00,26.55,27.167,1611
3/21/2023,0:00,26.55,27.167,1584
3/21/2023,1:00,26.55,27.167,1611
3/21/2023,2:00,26.666,27.167,1611
3/21/2023,3:00,26.55,27.167,1611
3/21/2023,4:00,26.436,27.138,1607
3/21/2023,5:00,26.436,26.958,1604
3/21/2023,6:00,26.436,26.958,1604
3/21/2023,7:00,26.436,26.958,1605
3/21/2023,8:00,26.436,26.958,1602
3/21/2023,9:00,26.35,26.958,1600
3/21/2023,10:00,26.436,26.958,1604
3/21/2023,11:00,26.436,26.958,1604
3/21/2023,12:00,0,26.958,146
3/21/2023,13:00,0,0,0
3/21/2023,14:00,0,0,0
3/21/2023,15:00,0,0,0
3/21/2023,16:00,0,0,0
3/21/2023,17:00,0,0,0
3/21/2023,18:00,0,0,0
3/21/2023,19:00,0,0,0
3/21/2023,20:00,0,0,0
3/21/2023,21:00,0,52.57,92
3/21/2023,22:00,26.436,27.167,1611
3/21/2023,23:00,26.55,27.167,1610
3/22/2023,0:00,26.666,27.167,1585
3/22/2023,1:00,26.55,27.167,1610
3/22/2023,2:00,0.016,27.138,1519
3/22/2023,3:00,0,0.016,0
3/22/2023,4:00,0,0,0
3/22/2023,5:00,0,0,0
3/22/2023,6:00,0,38.94,92
3/22/2023,7:00,26.436,27.138,1607
3/22/2023,8:00,26.436,26.958,1607